Tijuana, Mexico

10:08 AM PDT on September 26, 2017 (GMT -0700)
Gen Abelardo L Rodriguez International

Weather History for MMTJ - April, 2013

Change the Weather History Date:

Monday, April 1, 2013

  Actual Average Record
Temperature  
Mean Temperature 58 °F -  
Max Temperature 64 °F 65 °F 84 °F (2011)
Min Temperature 53 °F 49 °F 41 °F (1999)
Degree Days  
Heating Degree Days 6    
Growing Degree Days 8 (Base 50)    
Moisture  
Dew Point 48 °F    
Average Humidity 70    
Maximum Humidity 88    
Minimum Humidity 45    
Precipitation  
Precipitation 0.00 in - - ()
Sea Level Pressure  
Sea Level Pressure 30.15 in    
Wind  
Wind Speed 7 mph ()    
Max Wind Speed 18 mph    
Max Gust Speed -    
Visibility 6.7 miles    
Events      
Averages and records for this station are not official NWS values.
T = Trace of Precipitation, MM = Missing Value Source: Averaged Metar Reports

Daily Weather History Graph

Daily Weather History Graph

Search for Another Location

Airport or City:

Trip Planner

Search our weather history database for the weather conditions in past years. The results will help you decide how hot, cold, wet, or windy it might be!

Date:

Astronomy

Apr. 01, 2013 Rise Set
Actual Time 6:35 AM PDT 7:08 PM PDT
Civil Twilight 6:10 AM PDT 7:32 PM PDT
Nautical Twilight 5:41 AM PDT 8:02 PM PDT
Astronomical Twilight 5:12 AM PDT 8:31 PM PDT
Moon 12:06 AM PDT (4/1) 10:41 AM PDT (4/1)
Length of Visible Light 13h 22m
Length of Day
12h 32m
Waning Gibbous, 66% of the Moon is Illuminated
Apr 1
Waning Gibbous
Apr 2
Last Quarter
Apr 10
New
Apr 18
First Quarter
Apr 25
Full

Hourly Weather History & Observations

Time (PDT) Temp. Dew Point Humidity Pressure Visibility Wind Dir Wind Speed Gust Speed Precip Events Conditions
12:41 AM 57.2 °F 51.8 °F 82% 30.14 in 6.0 mi WNW 6.9 mph - N/A   Scattered Clouds
1:41 AM 53.6 °F 50.0 °F 88% 30.17 in 6.0 mi WNW 3.5 mph - N/A   Scattered Clouds
2:41 AM 55.4 °F 51.8 °F 88% 30.14 in 6.0 mi Calm Calm - N/A   Clear
3:41 AM 53.6 °F 50.0 °F 88% 30.13 in 6.0 mi Calm Calm - N/A   Scattered Clouds
4:43 AM 53.6 °F 50.0 °F 88% 30.15 in 6.0 mi Calm Calm - N/A   Mostly Cloudy
5:44 AM 55.4 °F 50.0 °F 82% 30.14 in 6.0 mi North 6.9 mph - N/A   Mostly Cloudy
6:40 AM 53.6 °F 50.0 °F 88% 30.15 in 6.0 mi NNW 5.8 mph - N/A   Overcast
7:41 AM 55.4 °F 50.0 °F 82% 30.18 in 6.0 mi NNW 6.9 mph - N/A   Mostly Cloudy
9:09 AM 59.0 °F 48.2 °F 67% 30.20 in 7.0 mi North 8.1 mph - N/A   Mostly Cloudy
9:47 AM 59.0 °F 44.6 °F 59% 30.19 in 7.0 mi NNW 5.8 mph - N/A   Mostly Cloudy
10:49 AM 62.6 °F 46.4 °F 55% 30.18 in 7.0 mi WNW 8.1 mph - N/A   Mostly Cloudy
11:47 AM 62.6 °F 44.6 °F 52% 30.18 in 7.0 mi NW 10.4 mph - N/A   Mostly Cloudy
12:47 PM 64.4 °F 44.6 °F 49% 30.17 in 7.0 mi WNW 10.4 mph - N/A   Mostly Cloudy
1:44 PM 64.4 °F 42.8 °F 45% 30.15 in 8.0 mi West 12.7 mph - N/A   Mostly Cloudy
2:40 PM 62.6 °F 44.6 °F 52% 30.14 in 8.0 mi West 17.3 mph - N/A   Mostly Cloudy
3:40 PM 62.6 °F 46.4 °F 55% 30.13 in 8.0 mi WNW 18.4 mph - N/A   Overcast
4:41 PM 62.6 °F 48.2 °F 59% 30.14 in 8.0 mi West 12.7 mph - N/A   Mostly Cloudy
5:43 PM 60.8 °F 48.2 °F 63% 30.11 in 8.0 mi West 16.1 mph - N/A   Mostly Cloudy
6:41 PM 59.0 °F 50.0 °F 72% 30.13 in 8.0 mi WNW 13.8 mph - N/A   Mostly Cloudy
7:41 PM 59.0 °F 50.0 °F 72% 30.14 in 6.0 mi WNW 13.8 mph - N/A   Mostly Cloudy
8:40 PM 59.0 °F 50.0 °F 72% 30.12 in 6.0 mi WNW 10.4 mph - N/A   Overcast
9:41 PM 59.0 °F 48.2 °F 67% 30.12 in 6.0 mi North 11.5 mph - N/A   Mostly Cloudy
10:44 PM 57.2 °F 50.0 °F 77% 30.15 in 6.0 mi NW 8.1 mph - N/A   Mostly Cloudy
11:50 PM 57.2 °F 50.0 °F 77% 30.12 in 6.0 mi NNW 8.1 mph - N/A   Overcast